(62936) = 1999 RA257 = 2000 VF23 = 2001 XO87

Discovered at Socorro on 2000-11-01 by LINEAR.

Orbit

Orbit type: Main Belt

Note: WebGL enabled browser required.

epoch2024-03-31.0
epoch JD2460400.5
perihelion date2019-12-29.21927
perihelion JD2458846.71927
argument of perihelion (°)164.45578
ascending node (°)40.41950
inclination (°)7.68397
eccentricity0.0922416
perihelion distance (AU)2.8518538
Tisserand w.r.t. Jupiter3.2
ΔV w.r.t. Earth (km/sec)10.8
semimajor axis (AU)3.1416440
mean anomaly (°)275.01610
mean daily motion (°/day)0.17699800
aphelion distance (AU)3.431
period (years)5.57
P-vector [x]-0.90566543
P-vector [y]-0.40186743
P-vector [z]-0.13517658
Q-vector [x]0.41503527
Q-vector [y]-0.77507959
Q-vector [z]-0.47644239
absolute magnitude13.94
phase slope0.15
uncertainty0
referenceMPEC 2024-E109
observations used1809
oppositions20
arc length (days)8944
first opposition used1999
last opposition used2024
residual rms (arc-secs)0.65
perturbers coarse indicatorM-v
perturbers precise indicator003Ek
first observation date used1999-08-12.0
last observation date used2024-02-06.0
computer nameMPCLINUX
JD of orbit computation2456937.338827
perihelion JD uncertainty (days)1.0379E-04
argument of perihelion uncertainty (°)3.0864E-05
ascending node uncertainty (°)2.4969E-05
inclination uncertainty (°)4.1044E-06
eccentricity uncertainty 4.1668E-08
perihelion distance uncertainty (AU)1.3485E-07
Minimum Orbit Intersection Distances (in AU)
for orbit epoch: 2460400.5, reference: E2024-EA9
Mercury2.41354
Venus2.12999
Earth1.84846
Mars1.22603
Jupiter1.52441
Saturn5.74713
Uranus15.5238
Neptune26.3933

Observations

1837 total observations over interval: 1999 08 12.32483 – 2024 02 06.377967
These data are available for download (format description).

Date (UT) J2000 RA J2000 Dec Magn Location Ref
1999 08 12.32483 23 34 05.48 -12 51 40.4 18.8 R 699 – Lowell Observatory-LONEOS MPS 61053
1999 08 12.35284 23 34 04.57 -12 51 47.1   699 – Lowell Observatory-LONEOS MPS 61053
1999 08 12.38086 23 34 03.68 -12 51 53.4   699 – Lowell Observatory-LONEOS MPS 61053
1999 09 08.26647 23 15 57.44 -14 42 06.0 18.3 R 703 – Catalina Sky Survey MPS 43545
1999 09 08.27641 23 15 56.95 -14 42 08.2 18.7 R 703 – Catalina Sky Survey MPS 43545
1999 09 08.28644 23 15 56.44 -14 42 11.3 18.3 R 703 – Catalina Sky Survey MPS 43545
1999 09 08.29653 23 15 56.10 -14 42 12.2 18.4 R 703 – Catalina Sky Survey MPS 43545
1999 09 13.23291 23 12 08.23 -14 59 08.8 18.9   704 – Lincoln Laboratory ETS, New Mexico MPC 42429
1999 09 13.25638 23 12 07.08 -14 59 12.2 19.2   704 – Lincoln Laboratory ETS, New Mexico MPC 42429
1999 09 13.27943 23 12 05.99 -14 59 14.0 19.3   704 – Lincoln Laboratory ETS, New Mexico MPC 42429
2000 09 30.33085 03 27 04.43 +18 51 48.2 19.3   704 – Lincoln Laboratory ETS, New Mexico MPS 37667
2000 09 30.37692 03 27 03.39 +18 51 49.9 19.2   704 – Lincoln Laboratory ETS, New Mexico MPS 37667
2000 09 30.39240 03 27 03.17 +18 51 50.8 19.1   704 – Lincoln Laboratory ETS, New Mexico MPS 37667
2000 11 01.29776 03 07 35.01 +18 34 37.2 18.7   704 – Lincoln Laboratory ETS, New Mexico MPS 21708
2000 11 01.31206 03 07 34.30 +18 34 36.0 19.3   704 – Lincoln Laboratory ETS, New Mexico MPS 21708
2000 11 01.32630 03 07 33.51 +18 34 34.6 18.8   704 – Lincoln Laboratory ETS, New Mexico MPS 21708
2000 11 01.34065 03 07 32.78 +18 34 34.1 19.2   704 – Lincoln Laboratory ETS, New Mexico MPS 21708
2000 11 01.35518 03 07 32.07 +18 34 32.5 19.0   704 – Lincoln Laboratory ETS, New Mexico MPS 21708
2000 11 02.27917 03 06 46.25 +18 33 09.5 18.6   704 – Lincoln Laboratory ETS, New Mexico MPS 21708
2000 11 02.29279 03 06 45.48 +18 33 08.7 19.1   704 – Lincoln Laboratory ETS, New Mexico MPS 21708
2000 11 02.30634 03 06 44.79 +18 33 07.5 18.6   704 – Lincoln Laboratory ETS, New Mexico MPS 21708
2000 11 02.31989 03 06 44.10 +18 33 05.1 18.9   704 – Lincoln Laboratory ETS, New Mexico MPS 21708
2000 11 02.33346 03 06 43.33 +18 33 02.9 19.0   704 – Lincoln Laboratory ETS, New Mexico MPS 21708
2000 11 05.31024 03 04 13.30 +18 28 24.4 18.4   704 – Lincoln Laboratory ETS, New Mexico MPS 21708
2000 11 05.31129 03 04 13.31 +18 28 24.3 18.2   704 – Lincoln Laboratory ETS, New Mexico MPS 21708
2000 11 05.32397 03 04 12.63 +18 28 23.0 18.6   704 – Lincoln Laboratory ETS, New Mexico MPS 21708
2000 11 05.32546 03 04 12.58 +18 28 22.7 19.2   704 – Lincoln Laboratory ETS, New Mexico MPS 21708
2000 11 05.33772 03 04 11.87 +18 28 21.5 18.3   704 – Lincoln Laboratory ETS, New Mexico MPS 21708
2000 11 05.33990 03 04 11.75 +18 28 20.7 19.4   704 – Lincoln Laboratory ETS, New Mexico MPS 21708
2000 11 05.35153 03 04 11.13 +18 28 20.8 18.6   704 – Lincoln Laboratory ETS, New Mexico MPS 21708
2000 11 05.35523 03 04 10.97 +18 28 20.5 18.8   704 – Lincoln Laboratory ETS, New Mexico MPS 21708
2000 11 05.36806 03 04 10.38 +18 28 18.7 18.4   704 – Lincoln Laboratory ETS, New Mexico MPS 21708
2000 11 05.37093 03 04 10.11 +18 28 18.2 19.2   704 – Lincoln Laboratory ETS, New Mexico MPS 21708
2000 11 06.25389 03 03 25.38 +18 26 50.9 18.5   704 – Lincoln Laboratory ETS, New Mexico MPS 21708
2000 11 06.26765 03 03 24.63 +18 26 49.6 18.5   704 – Lincoln Laboratory ETS, New Mexico MPS 21708
2000 11 06.28197 03 03 23.96 +18 26 49.1 19.1   704 – Lincoln Laboratory ETS, New Mexico MPS 21708
2000 11 21.23936 02 50 50.25 +17 59 49.9 18.4   704 – Lincoln Laboratory ETS, New Mexico MPS 22743
2000 11 21.25456 02 50 49.41 +17 59 47.2 18.7   704 – Lincoln Laboratory ETS, New Mexico MPS 22743
2000 11 21.26949 02 50 48.77 +17 59 46.8 18.3   704 – Lincoln Laboratory ETS, New Mexico MPS 22743
2000 11 21.28439 02 50 48.00 +17 59 45.4 18.3   704 – Lincoln Laboratory ETS, New Mexico MPS 22743
2001 11 12.43880 08 47 14.04 +26 16 20.3 19.2   704 – Lincoln Laboratory ETS, New Mexico MPS 43545
2001 11 12.45320 08 47 14.50 +26 16 22.0 19.8   704 – Lincoln Laboratory ETS, New Mexico MPS 43545
2001 11 12.46760 08 47 14.91 +26 16 22.8 19.6   704 – Lincoln Laboratory ETS, New Mexico MPS 43545
2001 11 12.48199 08 47 15.39 +26 16 24.0 19.2   704 – Lincoln Laboratory ETS, New Mexico MPS 43545
2001 11 12.49638 08 47 15.85 +26 16 24.0 19.7   704 – Lincoln Laboratory ETS, New Mexico MPS 43545
2001 11 20.37613 08 51 01.85 +26 28 05.4 19.0 R 699 – Lowell Observatory-LONEOS MPS 43545
2001 11 20.39833 08 51 02.46 +26 28 08.0   699 – Lowell Observatory-LONEOS MPS 43545
2001 11 20.42046 08 51 02.90 +26 28 11.4   699 – Lowell Observatory-LONEOS MPS 43545
2001 11 20.44258 08 51 03.45 +26 28 13.9   699 – Lowell Observatory-LONEOS MPS 43545
2001 11 24.43285 08 52 26.58 +26 36 24.7 18.9   704 – Lincoln Laboratory ETS, New Mexico MPS 49264
2001 11 24.44732 08 52 26.78 +26 36 29.5 20.0   704 – Lincoln Laboratory ETS, New Mexico MPS 49264
2001 11 24.46183 08 52 27.05 +26 36 31.2 19.4   704 – Lincoln Laboratory ETS, New Mexico MPS 49264
2001 11 24.49076 08 52 27.55 +26 36 33.9 19.1   704 – Lincoln Laboratory ETS, New Mexico MPS 49264
2001 12 13.35177 08 53 49.14 +27 35 56.0 19.0   704 – Lincoln Laboratory ETS, New Mexico MPS 45217
2001 12 13.36714 08 53 48.86 +27 35 59.1 19.5   704 – Lincoln Laboratory ETS, New Mexico MPS 45217
2001 12 13.38286 08 53 48.74 +27 36 03.4 19.5   704 – Lincoln Laboratory ETS, New Mexico MPS 45217
2001 12 13.39843 08 53 48.59 +27 36 07.5 19.8   704 – Lincoln Laboratory ETS, New Mexico MPS 45217
2001 12 13.41361 08 53 48.44 +27 36 11.2 19.3   704 – Lincoln Laboratory ETS, New Mexico MPS 45217
2001 12 14.44562 08 53 36.99 +27 40 20.1 18.9   704 – Lincoln Laboratory ETS, New Mexico MPS 45217
2001 12 14.45202 08 53 36.92 +27 40 22.2 19.1   704 – Lincoln Laboratory ETS, New Mexico MPS 45217
2001 12 14.46098 08 53 36.79 +27 40 23.5 19.6   704 – Lincoln Laboratory ETS, New Mexico MPS 45217
2001 12 14.46722 08 53 36.66 +27 40 25.9 19.4   704 – Lincoln Laboratory ETS, New Mexico MPS 45217
2001 12 14.47633 08 53 36.61 +27 40 29.1 19.0   704 – Lincoln Laboratory ETS, New Mexico MPS 45217
2001 12 14.48248 08 53 36.49 +27 40 29.6 19.5   704 – Lincoln Laboratory ETS, New Mexico MPS 45217
2001 12 14.49169 08 53 36.32 +27 40 31.9 19.0   704 – Lincoln Laboratory ETS, New Mexico MPS 45217
2001 12 14.50704 08 53 36.17 +27 40 35.5 18.6   704 – Lincoln Laboratory ETS, New Mexico MPS 45217
2001 12 14.51323 08 53 35.99 +27 40 37.1 19.1   704 – Lincoln Laboratory ETS, New Mexico MPS 45217
2001 12 15.38239 08 53 25.33 +27 44 12.0 19.1   704 – Lincoln Laboratory ETS, New Mexico MPS 49264
2001 12 15.41268 08 53 24.90 +27 44 19.3 19.1   704 – Lincoln Laboratory ETS, New Mexico MPS 49264
2001 12 15.44352 08 53 24.45 +27 44 28.1 19.4   704 – Lincoln Laboratory ETS, New Mexico MPS 49264
2001 12 18.30589 08 52 40.01 +27 56 34.4 18.5 R 699 – Lowell Observatory-LONEOS MPS 45217
2001 12 18.33019 08 52 39.52 +27 56 40.6   699 – Lowell Observatory-LONEOS MPS 45217
2001 12 18.35454 08 52 39.08 +27 56 47.1   699 – Lowell Observatory-LONEOS MPS 45217
2001 12 18.37897 08 52 38.57 +27 56 53.3   699 – Lowell Observatory-LONEOS MPS 45217
2001 12 19.54640 08 52 16.36 +28 01 59.7 18.7   644 – Palomar Mountain/NEAT MPS 46855
2001 12 19.54993 08 52 16.31 +28 02 00.6 18.4   644 – Palomar Mountain/NEAT MPS 46855
2001 12 19.55681 08 52 16.14 +28 02 02.4 18.8   644 – Palomar Mountain/NEAT MPS 46855
2001 12 19.56024 08 52 16.09 +28 02 03.2 18.4   644 – Palomar Mountain/NEAT MPS 46855
2001 12 19.56719 08 52 15.92 +28 02 05.0 18.8   644 – Palomar Mountain/NEAT MPS 46855
2001 12 19.57072 08 52 15.87 +28 02 06.1 18.8   644 – Palomar Mountain/NEAT MPS 46855
2001 12 21.39489 08 51 37.39 +28 10 14.5 18.9   704 – Lincoln Laboratory ETS, New Mexico MPS 46855
2001 12 21.41047 08 51 37.04 +28 10 18.4 18.8   704 – Lincoln Laboratory ETS, New Mexico MPS 46855
2001 12 21.42572 08 51 36.67 +28 10 23.0 19.1   704 – Lincoln Laboratory ETS, New Mexico MPS 46855
2002 01 08.33332 08 41 06.55 +29 34 38.4 18.3   704 – Lincoln Laboratory ETS, New Mexico MPS 49264
2002 01 08.34908 08 41 05.78 +29 34 43.2 18.7   704 – Lincoln Laboratory ETS, New Mexico MPS 49264
